Showing default

LEMUR 2 UNTITLED-SC, 63351

Orbit data source: Space-Track

LEMUR 2 UNTITLED-SC, 63351 is a payload satellite owned by OroraTech (US) in SSO that was launched on Wed, 26 Mar 2025 UTC via an ELECTRON launch vehicle from the Rocket Lab Launch Complex (RLLC). Payload-class satellites include a variety of spacecraft equipped with specific instruments for various scientific and technological missions. These include communications satellites like Starlink; space stations such as the ISS; scientific satellites like the Hubble; Earth observation satellites from companies like Planet Labs, Umbra, and HawkEye 360; GPS; miniature CubeSats for education and research; and military/defense satellites.

Loading next visibility...
Identifier
63351, 2025-061A
Orbit
SSO
Country
Flag of USUS
Related business
Manufacturer
Spire/Glasgow
Mission
Operational Commercial Imaging
Bus & Motor
CUBESAT 8U, Unknown motor
Mass
~15 kg wet, ~15 kg dry
Launch date (UTC)
2025-03-26 (1 year ago)
Launch vehicle
ELECTRON
Launch site
Rocket Lab Launch Complex (RLLC)
Object type
Payload
Rocket body
Debris
Shape & HBR
Box + 2 Pan, 0.2 m
Radar Cross Section
0.070 m², Medium (>0.1 m² and < 1m²)

Expand to show TLE details & history
Last TLE update: 20 hours ago

TLE from 20 hours ago
0 LEMUR 2 UNTITLED-SC
1 63351U 25061A   26264.73002542  .00002563  00000-0  14424-3 0  9999
2 63351  97.5754 239.4846 0016902 294.7692  65.1781 15.14060412 82192
Epoch: 2026-09-21T17:31Z
TLE epoch observation values (Epoch: 2026-09-21T17:31:14.196Z)
Latitude
0.00004°
Longitude
-23.93022°
Altitude
522.028 km
Speed
7.605 km/s
True Right ascension
15h 57m 56s
True Declination
0° 00' 00"
Sunlit
Object was in daylight at epoch
Visualization orbit readout
Latitude
Unknown
Longitude
Unknown
Altitude
Unknown
Speed
Unknown
Apparent Right ascension
Unknown
Apparent Declination
Unknown
Sunlit
N/A
Visualization observer readout
Local Sidereal Time
06:49:37
Azimuth
Unknown
Elevation
Unknown
Doppler factor
Unknown
Orbital elements
Apogee altitude
532.474 km
Perigee altitude
509.153 km
Semi-major axis
6,898.951 km
Eccentricity
0.00169
Inclination
97.5754°
RAAN
239.4846°
Arg. of periapsis
294.7692°
True anomaly
65.35405°
Mean anomaly
65.1781°
Eccentric anomaly
65.26606°
Mean motion
3.78764 °/min
Orbital period
95.05 mins
BSTAR
0.00014424
Loading maneuver chart data...
Computing Atmospheric mass density...
Loading historical data...
Loading historical data...
Loading historical data...
Loading historical data...
Loading historical data...
Loading historical data...
Loading historical data...

Documentation

Showing up to 5 results
|